Regional Weather Roundup
Issued by NWS Burlington, VT

Home | Current Version | Previous Version | Text Only | Print | Product List | Glossary On
Versions: 1 2 3 4 5 6 7 8 9 10 11 12 13 14 15 16 17 18 19 20 21 22 23 24 25 26 27 28 29 30 31 32 33 34 35 36 37 38 39 40 41 42 43 44 45 46 47 48 49 50
000
ASUS41 KBTV 012130
RWRBTV
VERMONT REGIONAL WEATHER ROUNDUP
NATIONAL WEATHER SERVICE BURLINGTON VT
500 PM EDT WED JUL 01 2015

NOTE: "FAIR" INDICATES FEW OR NO CLOUDS BELOW 12,000 FEET WITH NO
SIGNIFICANT WEATHER AND/OR OBSTRUCTIONS TO VISIBILITY.

* THESE REPORTS ARE NOT UNDER NWS QUALITY CONTROL AND/OR DO NOT
  REPORT WEATHER SUCH AS PRECIPITATION AND FOG.

VTZ001>019-012200-
_____VERMONT_____


CITY           SKY/WX    TMP DP  RH WIND       PRES   REMARKS
BURLINGTON     PTSUNNY   73  64  73 S6        29.63S
MONTPELIER     LGT RAIN  66  61  84 S7        29.72R
MORRISVILLE    MOSUNNY   73  63  70 S7        29.66F
ST. JOHNSBURY*   N/A     70  62  76 MISG      29.64F
LYNDONVILLE*   FAIR      68  64  87 SE5       29.69S
MIDDLEBURY*    CLOUDY    72  68  88 CALM      29.67S
RUTLAND*       PTSUNNY   68  61  77 CALM      29.72R
SPRINGFIELD    MOSUNNY   70  64  81 S6        29.70S
HIGHGATE*      PTSUNNY   70  64  80 S3        29.61S
NEWPORT*       PTSUNNY   68  64  85 CALM      29.66S
BENNINGTON     CLOUDY    66  62  87 CALM      29.75S
GALLUP MILLS*    N/A     66 N/A N/A MISG        N/A
MT. MANSFIELD*   N/A     55 N/A N/A NW20        N/A

_____LAKE CHAMPLAIN_____


CITY           SKY/WX    TMP DP  RH WIND       PRES   REMARKS
BURTON ISLAND*   N/A     70  64  83 S8          N/A
COLCHESTER RF*   N/A     70  64  83 SW10        N/A
DIAMOND ISL*     N/A     72  63  73 S17         N/A

$$

NYZ007-026>031-035-052-083-012200-
_____NORTHERN NEW YORK_____


CITY           SKY/WX    TMP DP  RH WIND       PRES   REMARKS
PLATTSBURGH    CLOUDY    73  62  68 SW5       29.62R
SARANAC LAKE   CLOUDY    66  58  75 W12G26    29.68R
MASSENA        LGT RAIN  65  60  84 W10G21    29.64R
OGDENSBURG*    CLOUDY    66  64  94 NW14G20   29.68R
POTSDAM*       LGT RAIN  63  63 100 W12G17    29.68R
STARK FALLS*     N/A     64 N/A N/A SW16        N/A
WATERTOWN      CLOUDY    63  60  90 SW12      29.72R
ALBANY         PTSUNNY   74  63  68 W13       29.72R
GLENS FALLS    PTSUNNY   72  65  78 CALM      29.69S

$$
NHZ002-005-011-012200-
_____NEW HAMPSHIRE_____


CITY           SKY/WX    TMP DP  RH WIND       PRES   REMARKS
LEBANON        SUNNY     77  63  61 S8        29.67F
KEENE          PTSUNNY   73  61  64 NE5       29.70S
MT WASHINGTON  FOG       48  48 100 SW44G49     N/A  VSB 0
PLYMOUTH       PTSUNNY   67  66  97 CALM      29.69F
WHITEFIELD     LGT RAIN  69  61  75 VRB3      29.68S

$$

_____REGIONAL QUEBEC LOCATIONS_____


CITY           SKY/WX    TMP DP  RH WIND       PRES   REMARKS
MONTREAL       LGT RAIN  72  63  73 SW14      29.58S
QUEBEC CITY    LGT RAIN  63  61  94 SE9       29.61F
SHERBROOKE     CLOUDY    64  63  94 S6        29.63S

_____REGIONAL ONTARIO LOCATIONS_____


CITY           SKY/WX    TMP DP  RH WIND       PRES   REMARKS
OTTAWA         PTSUNNY   64  61  88 NW18G25   29.65R

______KEY______
VSB  - VISIBILITY IN MILES
WCI  - WIND CHILL INDEX
HX   - HEAT INDEX
$$
NNNN



USA.gov is the U.S. government's official web portal to all federal, state and local government web resources and services.